Hourly Data Report for July 08, 2006

TORONTO CITY
ONTARIO

43°40'00.000" N
79°24'00.000" W
112.50 m
6158355
71508
XTO

Download Data

Hourly Data (July 2006)
Hourly Data Report for July 8, 2006
TIME
LST
Temp Definition
°C
Dew Point Definition
°C
Rel Hum Definition
%
Precip. Amount Definition
mm

Wind Dir Definition
10's deg

Wind Spd Definition
km/h
Visibility Definition
km
Stn Press Definition
kPa
Hmdx Definition


Wind Chill Definition


Weather Definition


00:00 19.6 14.1 71   LegendMM LegendMM   100.99     LegendNANA
01:00 19.2 13.4 69   LegendMM LegendMM   100.99     LegendNANA
02:00 18.6 13.1 70   LegendMM LegendMM   100.97     LegendNANA
03:00 18.1 13.2 73   LegendMM LegendMM   100.98     LegendNANA
04:00 16.6 13.2 80   LegendMM LegendMM   100.98     LegendNANA
05:00 16.5 12.9 79   LegendMM LegendMM   100.98     LegendNANA
06:00 17.1 14.1 83   LegendMM LegendMM   101.00     LegendNANA
07:00 19.9 14.8 72   LegendMM LegendMM   101.01     LegendNANA
08:00 19.9 14.8 72   LegendMM LegendMM   101.02     LegendNANA
09:00 20.8 14.4 67   LegendMM LegendMM   100.97     LegendNANA
10:00 23.1 14.5 58   LegendMM LegendMM   100.91 27   LegendNANA
11:00 24.0 15.1 58   LegendMM LegendMM   100.89 28   LegendNANA
12:00 25.3 15.7 55   LegendMM LegendMM   100.83 30   LegendNANA
13:00 26.5 14.6 48   LegendMM LegendMM   100.75 30   LegendNANA
14:00 27.0 15.1 48   LegendMM LegendMM   100.65 31   LegendNANA
15:00 26.6 14.1 46   LegendMM LegendMM   100.59 30   LegendNANA
16:00 26.5 12.2 41   LegendMM LegendMM   100.49 29   LegendNANA
17:00 26.4 11.8 40   LegendMM LegendMM   100.43 29   LegendNANA
18:00 25.7 11.6 41   LegendMM LegendMM   100.35 28   LegendNANA
19:00 24.6 12.7 47   LegendMM LegendMM   100.32 27   LegendNANA
20:00 22.7 13.3 55   LegendMM LegendMM   100.33 26   LegendNANA
21:00 21.7 14.9 65   LegendMM LegendMM   100.35 26   LegendNANA
22:00 20.6 15.4 72   LegendMM LegendMM   100.31 25   LegendNANA
23:00 19.9 14.8 72   LegendMM LegendMM   100.29     LegendNANA

Notes on Data Quality.

Legend

  • E = Estimated
  • M = Missing
  • NA = Not Available*
  • [empty] = Indicates an unobserved value
Date modified: